GLOBALSTAR M019 [-]

Last updated on July 6, 2021, 3:36 p.m. UTC

1 25677U 99019B   21186.90606880 -.00000133  00000-0 -44687-3 0  9991
2 25677  51.9871 124.7173 0001203 303.6087  82.2612 12.13820547 10003
UTC
Height (km)
Latitude
Longitude
Inclination
Orbital Period
UTC large
Height (km)
Speed (km/s)
/
Latitude / Longitude
Inclination (degrees)
Orbital Period (minutes)
Azimuth
Elevation
Range (km)
Doppler Factor
iOS Compass Heading
iOS Angle